Weather History for Giddings, TX

Change the Weather History Date:

Friday, April 19, 2013

  Actual Average (KAUS) Record (KAUS)
Temperature  
Mean Temperature 52 °F 68 °F  
Max Temperature 64 °F 81 °F 99 °F (1951)
Min Temperature 41 °F 56 °F 40 °F (2013)
Degree Days  
Heating Degree Days 12 2  
Month to date heating degree days 53  
Since 1 July heating degree days 1890  
Cooling Degree Days 0 5  
Month to date cooling degree days 69  
Year to date cooling degree days 127  
Growing Degree Days 2 (Base 50)    
Moisture  
Dew Point 32 °F    
Average Humidity 50    
Maximum Humidity 81    
Minimum Humidity 24    
Precipitation  
Precipitation 0.00 in 0.07 in 2.04 in (1949)
Month to date precipitation 1.27  
Year to date precipitation 8.38  
Snow  
Snow 0.00 in - - ()
Month to date snowfall  
Since 1 July snowfall  
Snow Depth -    
Sea Level Pressure  
Sea Level Pressure 30.25 in    
Wind  
Wind Speed 8 mph (North)    
Max Wind Speed 18 mph    
Max Gust Speed 25 mph    
Visibility 10 miles    
Events      
T = Trace of Precipitation, MM = Missing Value Source: NWS Daily Summary

Daily Weather History Graph

Daily Weather History Graph

Search for Another Location

Airport:

Trip Planner

Search our weather history database for the weather conditions in past years. The results will help you decide how hot, cold, wet, or windy it might be!

Date:

Astronomy

Apr. 19, 2013 Rise Set
Actual Time 6:56 AM CDT 7:58 PM CDT
Civil Twilight 6:31 AM CDT 8:22 PM CDT
Nautical Twilight 6:02 AM CDT 8:52 PM CDT
Astronomical Twilight 5:32 AM CDT 9:22 PM CDT
Moon 2:09 PM CDT (4/19) 2:45 AM CDT (4/19)
Length of Visible Light 13h 51m
Length of Day
13h 01m
First Quarter, 62% of the Moon is Illuminated
Apr 19
First Quarter
Apr 25
Full
May 2
Last Quarter
May 9
New
May 17
First Quarter

Hourly Weather History & Observations

Time (CDT) Temp. Windchill Dew Point Humidity Pressure Visibility Wind Dir Wind Speed Gust Speed Precip Events Conditions
12:15 AM 51.8 °F - 37.4 °F 58% 30.11 in 10.0 mi NNE 12.7 mph 21.9 mph N/A   Clear
12:35 AM 51.8 °F - 37.4 °F 58% 30.13 in 10.0 mi North 8.1 mph 18.4 mph N/A   Clear
12:55 AM 51.8 °F - 35.6 °F 54% 30.15 in 10.0 mi NNE 11.5 mph 17.3 mph N/A   Clear
1:15 AM 50.0 °F - 35.6 °F 58% 30.15 in 10.0 mi North 9.2 mph - N/A   Clear
1:55 AM 50.0 °F - 35.6 °F 58% 30.17 in 10.0 mi North 11.5 mph 19.6 mph N/A   Clear
2:15 AM 50.0 °F - 35.6 °F 58% 30.17 in 10.0 mi North 11.5 mph 18.4 mph N/A   Clear
2:35 AM 48.2 °F - 33.8 °F 58% 30.19 in 10.0 mi NNE 8.1 mph 17.3 mph N/A   Clear
2:55 AM 48.2 °F - 33.8 °F 58% 30.19 in 10.0 mi NNE 8.1 mph - N/A   Clear
3:15 AM 46.4 °F 42.9 °F 33.8 °F 62% 30.20 in 10.0 mi NNE 6.9 mph - N/A   Clear
3:35 AM 46.4 °F 44.3 °F 33.8 °F 62% 30.21 in 10.0 mi North 4.6 mph - N/A   Clear
3:55 AM 46.4 °F 45.2 °F 33.8 °F 62% 30.22 in 10.0 mi North 3.5 mph - N/A   Clear
4:15 AM 44.6 °F 41.4 °F 33.8 °F 66% 30.22 in 10.0 mi North 5.8 mph - N/A   Clear
4:35 AM 44.6 °F - 33.8 °F 66% 30.23 in 10.0 mi Calm Calm - N/A   Clear
4:55 AM 42.8 °F - 33.8 °F 70% 30.23 in 10.0 mi Calm Calm - N/A   Clear
5:15 AM 42.8 °F 41.1 °F 33.8 °F 70% 30.23 in 10.0 mi North 3.5 mph - N/A   Clear
5:35 AM 42.8 °F 39.3 °F 33.8 °F 70% 30.23 in 10.0 mi North 5.8 mph - N/A   Clear
5:55 AM 42.8 °F 39.3 °F 33.8 °F 70% 30.24 in 10.0 mi North 5.8 mph - N/A   Clear
6:15 AM 42.8 °F 40.1 °F 33.8 °F 70% 30.24 in 10.0 mi North 4.6 mph - N/A   Clear
6:35 AM 41.0 °F - 33.8 °F 76% 30.26 in 10.0 mi Calm Calm - N/A   Clear
6:55 AM 41.0 °F - 33.8 °F 76% 30.27 in 10.0 mi Calm Calm - N/A   Clear
7:15 AM 41.0 °F 39.0 °F 33.8 °F 76% 30.27 in 10.0 mi North 3.5 mph - N/A   Clear
7:35 AM 41.0 °F 39.0 °F 35.6 °F 81% 30.27 in 10.0 mi North 3.5 mph - N/A   Clear
7:55 AM 42.8 °F 41.1 °F 35.6 °F 76% 30.28 in 10.0 mi North 3.5 mph - N/A   Clear
8:15 AM 44.6 °F 42.2 °F 35.6 °F 71% 30.29 in 10.0 mi North 4.6 mph - N/A   Clear
8:35 AM 44.6 °F 40.2 °F 35.6 °F 71% 30.29 in 10.0 mi North 8.1 mph - N/A   Clear
8:55 AM 46.4 °F 41.5 °F 33.8 °F 62% 30.30 in 10.0 mi North 10.4 mph 18.4 mph N/A   Clear
9:15 AM 48.2 °F - 33.8 °F 58% 30.30 in 10.0 mi North 10.4 mph 17.3 mph N/A   Clear
9:35 AM 50.0 °F - 33.8 °F 54% 30.30 in 10.0 mi North 9.2 mph 17.3 mph N/A   Clear
9:55 AM 51.8 °F - 32.0 °F 47% 30.31 in 10.0 mi North 15.0 mph 20.7 mph N/A   Clear
10:15 AM 53.6 °F - 30.2 °F 41% 30.31 in 10.0 mi North 12.7 mph 23.0 mph N/A   Clear
10:35 AM 53.6 °F - 32.0 °F 44% 30.32 in 10.0 mi North 9.2 mph 19.6 mph N/A   Clear
10:55 AM 53.6 °F - 28.4 °F 38% 30.32 in 10.0 mi NNW 13.8 mph 21.9 mph N/A   Clear
11:15 AM 55.4 °F - 28.4 °F 36% 30.32 in 10.0 mi NNE 12.7 mph 21.9 mph N/A   Clear
11:35 AM 55.4 °F - 28.4 °F 36% 30.33 in 10.0 mi North 16.1 mph 19.6 mph N/A   Clear
11:55 AM 59.0 °F - 30.2 °F 34% 30.33 in 10.0 mi NNW 18.4 mph 23.0 mph N/A   Clear
12:55 PM 59.0 °F - 28.4 °F 31% 30.31 in 10.0 mi North 16.1 mph 25.3 mph N/A   Clear
1:15 PM 59.0 °F - 28.4 °F 31% 30.31 in 10.0 mi North 13.8 mph 21.9 mph N/A   Clear
1:35 PM 60.8 °F - 30.2 °F 31% 30.30 in 10.0 mi NNW 18.4 mph 25.3 mph N/A   Clear
1:55 PM 60.8 °F - 28.4 °F 29% 30.30 in 10.0 mi North 8.1 mph 23.0 mph N/A   Clear
2:15 PM 60.8 °F - 26.6 °F 27% 30.28 in 10.0 mi North 15.0 mph 24.2 mph N/A   Clear
2:35 PM 62.6 °F - 28.4 °F 27% 30.28 in 10.0 mi North 12.7 mph 21.9 mph N/A   Clear
2:55 PM 62.6 °F - 28.4 °F 27% 30.27 in 10.0 mi NNW 13.8 mph 21.9 mph N/A   Clear
3:15 PM 62.6 °F - 28.4 °F 27% 30.26 in 10.0 mi NNE 12.7 mph 20.7 mph N/A   Clear
3:35 PM 62.6 °F - 26.6 °F 26% 30.25 in 10.0 mi North 9.2 mph 23.0 mph N/A   Clear
3:55 PM 62.6 °F - 28.4 °F 27% 30.24 in 10.0 mi NNW 17.3 mph 21.9 mph N/A   Clear
4:15 PM 64.4 °F - 28.4 °F 26% 30.23 in 10.0 mi North 8.1 mph 19.6 mph N/A   Clear
4:35 PM 64.4 °F - 26.6 °F 24% 30.22 in 10.0 mi North 12.7 mph 18.4 mph N/A   Clear
4:55 PM 64.4 °F - 26.6 °F 24% 30.22 in 10.0 mi North 9.2 mph - N/A   Clear
5:15 PM 64.4 °F - 26.6 °F 24% 30.22 in 10.0 mi NW 10.4 mph 17.3 mph N/A   Clear
5:35 PM 62.6 °F - 26.6 °F 26% 30.21 in 10.0 mi North 6.9 mph 16.1 mph N/A   Clear
5:55 PM 64.4 °F - 26.6 °F 24% 30.20 in 10.0 mi NNE 6.9 mph - N/A   Clear
6:15 PM 62.6 °F - 26.6 °F 26% 30.21 in 10.0 mi North 8.1 mph - N/A   Clear
6:35 PM 62.6 °F - 26.6 °F 26% 30.20 in 10.0 mi NNE 8.1 mph - N/A   Clear
6:55 PM 62.6 °F - 28.4 °F 27% 30.21 in 10.0 mi Calm Calm - N/A   Clear
7:15 PM 62.6 °F - 28.4 °F 27% 30.20 in 10.0 mi North 5.8 mph - N/A   Clear
7:35 PM 60.8 °F - 28.4 °F 29% 30.20 in 10.0 mi NNE 3.5 mph - N/A   Clear
7:55 PM 59.0 °F - 30.2 °F 34% 30.21 in 10.0 mi Calm Calm - N/A   Clear
8:15 PM 57.2 °F - 30.2 °F 36% 30.21 in 10.0 mi NE 3.5 mph - N/A   Clear
8:35 PM 51.8 °F - 33.8 °F 50% 30.22 in 10.0 mi Calm Calm - N/A   Clear
8:55 PM 51.8 °F - 33.8 °F 50% 30.23 in 10.0 mi NE 3.5 mph - N/A   Clear
9:15 PM 50.0 °F - 35.6 °F 58% 30.24 in 10.0 mi Calm Calm - N/A   Clear
9:35 PM 48.2 °F - 35.6 °F 62% 30.25 in 10.0 mi ENE 3.5 mph - N/A   Clear
9:55 PM 46.4 °F 45.2 °F 33.8 °F 62% 30.25 in 10.0 mi ENE 3.5 mph - N/A   Clear
10:15 PM 46.4 °F 44.3 °F 33.8 °F 62% 30.26 in 10.0 mi ENE 4.6 mph - N/A   Clear
10:35 PM 46.4 °F - 35.6 °F 66% 30.26 in 10.0 mi Calm Calm - N/A   Clear
10:55 PM 46.4 °F - 35.6 °F 66% 30.27 in 10.0 mi Calm Calm - N/A   Clear
11:15 PM 44.6 °F - 35.6 °F 71% 30.27 in 10.0 mi Calm Calm - N/A   Clear
11:35 PM 42.8 °F 41.1 °F 33.8 °F 70% 30.27 in 10.0 mi ENE 3.5 mph - N/A   Clear
11:55 PM 42.8 °F - 35.6 °F 76% 30.27 in 10.0 mi Calm Calm - N/A   Clear